Miscellaneous Local Product
Issued by NWS Hastings, NE

Current Version | Previous Version | Text Only | Print | Product List | Glossary On
Versions: 1 2 3 4 5 6 7 8 9 10 11 12 13 14 15 16 17 18 19 20 21 22 23 24 25 26 27 28 29 30 31 32 33 34 35 36 37 38 39 40 41 42 43 44 45 46 47 48 49 50
000
AXUS43 KGID 270602
MISGRI

GID CWA HOURLY WEATHER ROUNDUP
NATIONAL WEATHER SERVICE HASTINGS NE
1200 AM CST FRI FEB 27 2015

NOTE: "FAIR" INDICATES FEW OR NO CLOUDS BELOW 12,000 FEET WITH NO
SIGNIFICANT WEATHER AND/OR OBSTRUCTIONS TO VISIBILITY.

...SOUTH CENTRAL NEBRASKA...

CITY           SKY/WX    TMP DP  RH WIND       PRES   REMARKS
GRAND ISLAND   CLEAR      0  -6  76 W5        30.53S WCI -10
HASTINGS       CLEAR      0  -6  76 CALM      30.51S
KEARNEY        CLEAR      1  -6  71 N3        30.50S
ORD            CLEAR     -2  -9  72 NW5       30.50S WCI -12
YORK             N/A      1  -2  85 N3        30.53S
AURORA         CLEAR     -1  -7  74 NW3       30.53R
LEXINGTON      CLEAR      3  -6  66 CALM      30.48S
HOLDREGE       CLEAR     -1  -9  66 NE3       30.49R
HEBRON         CLEAR      3  -2  80 CALM      30.57R

...NEBRASKA PANHANDLE...

CITY           SKY/WX    TMP DP  RH WIND       PRES   REMARKS
CHADRON        CLEAR     -6 -11  79 SW7       30.36F WCI -20
ALLIANCE       PTCLDY     1  -4  79 CALM      30.29F
SCOTTSBLUFF    CLOUDY     9   0  67 E13       30.28F WCI  -7
SIDNEY         CLOUDY     8   0  69 E12       30.26F WCI  -7

...WESTERN AND NORTH CENTRAL NEBRASKA...

CITY           SKY/WX    TMP DP  RH WIND       PRES   REMARKS
VALENTINE      CLEAR     -5  -9  83 SW3       30.44
AINSWORTH      CLEAR     -2  -7  80 W3        30.44S
ONEILL         CLEAR      0  -6  76 N5        30.50S WCI -10
BROKEN BOW     CLEAR     -6 -11  79 CALM      30.46S
IMPERIAL         N/A      8  -4  58 E9        30.38S WCI  -5
NORTH PLATTE   CLEAR     -1  -8  72 E6        30.44  WCI -13
MCCOOK         PTCLDY     7  -3  64 NE6       30.45S WCI  -3

...EASTERN NEBRASKA...

CITY           SKY/WX    TMP DP  RH WIND       PRES   REMARKS
NORFOLK        CLEAR      0  -6  76 N6        30.54S WCI -12
SO SIOUX CITY  CLEAR     -4  -9  79 NW7       30.59S WCI -18
TEKAMAH        CLEAR      0  -7  72 NW7       30.60S WCI -13
COLUMBUS       CLEAR      0  -9  65 NW5       30.56S WCI -10
ALBION         CLEAR     -3  -7  80 CALM      30.53S
OMAHA EPPLEY   CLEAR      2  -3  80 N3        30.59S
MILLARD        CLEAR      6  -2  70 CALM      30.59S
LINCOLN        CLEAR      1  -4  79 N6        30.59S WCI -10
NEBRASKA CITY  CLEAR      4  -4  70 CALM      30.58R
BEATRICE       CLEAR      0  -4  82 CALM      30.57S
FALLS CITY     CLEAR      4  -4  69 CALM      30.60R

...NORTHERN KANSAS...

CITY           SKY/WX    TMP DP  RH WIND       PRES   REMARKS
GOODLAND       CLOUDY    14   4  64 SE13      30.32F WCI   0
HILL CITY      MOCLDY     8  -3  61 NE6       30.49  WCI  -2
NORTON         CLEAR      9  -6  52 NE3       30.46S
PHILLIPSBURG   CLEAR      9  -2  61 CALM      30.53R
HAYS           MOCLDY    10  -8  44 E3        30.49R
RUSSELL        PTCLDY     6  -2  69 E7        30.50  WCI  -6
CONCORDIA      CLEAR      4  -2  76 CALM      30.56S
SALINA         CLEAR     11   0  61 NE7       30.56S WCI   0
TOPEKA         CLEAR      7  -1  70 N5        30.61S WCI  -2



USA.gov is the U.S. government's official web portal to all federal, state and local government web resources and services.